Weather History for KCVX - October, 2012

Change the Weather History Date:

Thursday, October 11, 2012

  Actual Average Record
Temperature  
Mean Temperature 44 °F -  
Max Temperature 47 °F - - ()
Min Temperature 40 °F - - ()
Degree Days  
Heating Degree Days 22    
Moisture  
Dew Point 34 °F    
Average Humidity 69    
Maximum Humidity 95    
Minimum Humidity 44    
Precipitation  
Precipitation 0.00 in - - ()
Sea Level Pressure  
Sea Level Pressure 30.01 in    
Wind  
Wind Speed 13 mph (WSW)    
Max Wind Speed 24 mph    
Max Gust Speed 33 mph    
Visibility 9 miles    
Events Rain    
T = Trace of Precipitation, MM = Missing Value Source: NWS Daily Summary

Daily Weather History Graph

Daily Weather History Graph

Search for Another Location

Airport or City:

Trip Planner

Search our weather history database for the weather conditions in past years. The results will help you decide how hot, cold, wet, or windy it might be!

Date:

Astronomy

Oct. 11, 2012 Rise Set
Actual Time 7:52 AM EDT 7:02 PM EDT
Civil Twilight 7:22 AM EDT 7:31 PM EDT
Nautical Twilight 6:48 AM EDT 8:05 PM EDT
Astronomical Twilight 6:14 AM EDT 8:39 PM EDT
Moon 3:19 AM EDT (10/11) 4:47 PM EDT (10/11)
Length of Visible Light 12h 08m
Length of Day
11h 09m
Waning Crescent, 18% of the Moon is Illuminated
Oct 11
Waning Crescent
Oct 15
New
Oct 21
First Quarter
Oct 29
Full
Nov 6
Last Quarter

Hourly Weather History & Observations

Time (EDT) Temp. Windchill Dew Point Humidity Pressure Visibility Wind Dir Wind Speed Gust Speed Precip Events Conditions
12:14 AM 43.5 °F 36.1 °F 25.5 °F 49% 30.07 in 10.0 mi West 16.1 mph - N/A   Overcast
12:34 AM 44.2 °F 37.0 °F 25.5 °F 48% 30.07 in 10.0 mi West 16.1 mph 24.2 mph N/A   Overcast
12:54 AM 44.6 °F 38.8 °F 27.3 °F 51% 30.07 in 10.0 mi WSW 11.5 mph 19.6 mph N/A   Overcast
1:14 AM 44.8 °F 39.0 °F 25.9 °F 48% 30.07 in 10.0 mi West 11.5 mph - N/A   Overcast
1:34 AM 44.8 °F 38.3 °F 26.4 °F 49% 30.06 in 10.0 mi West 13.8 mph - N/A   Overcast
1:54 AM 44.6 °F 39.2 °F 27.7 °F 52% 30.05 in 10.0 mi West 10.4 mph 16.1 mph N/A   Overcast
2:14 AM 45.0 °F 39.7 °F 27.3 °F 50% 30.05 in 10.0 mi WSW 10.4 mph - N/A   Overcast
2:34 AM 44.6 °F 40.2 °F 27.5 °F 51% 30.05 in 10.0 mi WSW 8.1 mph - N/A   Mostly Cloudy
2:54 AM 43.3 °F 40.7 °F 28.0 °F 55% 30.04 in 10.0 mi SSW 4.6 mph - N/A   Scattered Clouds
3:14 AM 42.8 °F 40.1 °F 28.6 °F 57% 30.03 in 10.0 mi SW 4.6 mph - N/A   Scattered Clouds
3:34 AM 43.0 °F 41.3 °F 29.3 °F 59% 30.02 in 10.0 mi South 3.5 mph - N/A   Mostly Cloudy
3:54 AM 42.6 °F 39.9 °F 30.2 °F 61% 30.02 in 10.0 mi South 4.6 mph - N/A   Mostly Cloudy
4:14 AM 41.2 °F 36.6 °F 30.9 °F 67% 30.02 in 10.0 mi South 6.9 mph - N/A   Scattered Clouds
4:34 AM 40.5 °F 35.8 °F 32.0 °F 72% 30.02 in 10.0 mi South 6.9 mph - N/A   Mostly Cloudy
4:54 AM 40.6 °F 36.7 °F 32.9 °F 74% 30.02 in 10.0 mi South 5.8 mph - N/A   Overcast
5:14 AM 40.1 °F 35.3 °F 33.3 °F 77% 30.02 in 10.0 mi South 6.9 mph - N/A   Overcast
5:34 AM 41.9 °F 35.4 °F 35.1 °F 77% 30.02 in 10.0 mi SW 11.5 mph - N/A Rain Rain
5:54 AM 43.3 °F 38.6 °F 35.8 °F 75% 30.02 in 10.0 mi SW 8.1 mph 19.6 mph N/A   Drizzle
6:14 AM 42.1 °F 37.1 °F 37.6 °F 84% 30.01 in 10.0 mi SW 8.1 mph - N/A Rain Light Rain
6:34 AM 41.5 °F 36.4 °F 37.9 °F 87% 30.00 in 10.0 mi SSW 8.1 mph - N/A Rain Light Rain
6:54 AM 41.4 °F 38.4 °F 38.7 °F 90% 30.00 in 10.0 mi South 4.6 mph - N/A Rain Rain
7:14 AM 41.5 °F 38.6 °F 39.0 °F 91% 29.99 in 7.0 mi South 4.6 mph - N/A Rain Rain
7:34 AM 41.2 °F 36.6 °F 39.2 °F 93% 29.98 in 10.0 mi SSE 6.9 mph - N/A Rain Rain
7:54 AM 41.0 °F 36.4 °F 39.4 °F 94% 29.96 in 10.0 mi SSE 6.9 mph - N/A Rain Light Rain
8:14 AM 40.5 °F 35.8 °F 39.2 °F 95% 29.96 in 5.0 mi SE 6.9 mph - N/A Rain Rain
8:35 AM 40.5 °F 35.8 °F 39.2 °F 95% 29.95 in 3.0 mi SSE 6.9 mph - N/A Rain Rain
8:54 AM 41.2 °F 36.0 °F 39.4 °F 93% 29.94 in 4.0 mi South 8.1 mph - N/A Rain Rain
9:14 AM 41.5 °F 36.4 °F 39.6 °F 93% 29.92 in 5.0 mi South 8.1 mph - N/A Rain Rain
9:34 AM 41.9 °F 35.4 °F 39.7 °F 92% 29.91 in 3.0 mi South 11.5 mph 19.6 mph N/A Rain Light Rain
9:54 AM 42.3 °F 37.3 °F 40.1 °F 92% 29.90 in 5.0 mi South 8.1 mph - N/A Rain Rain
10:15 AM 43.0 °F 38.2 °F 40.8 °F 92% 29.89 in 4.0 mi SSW 8.1 mph - N/A Rain Light Rain
10:34 AM 43.5 °F 37.5 °F 41.7 °F 93% 29.88 in 7.0 mi SSW 11.5 mph 16.1 mph N/A Rain Light Rain
10:54 AM 45.3 °F 39.0 °F 42.6 °F 90% 29.87 in 7.0 mi SW 13.8 mph - N/A Rain Light Rain
11:14 AM 46.9 °F - 40.1 °F 77% 29.87 in 10.0 mi West 18.4 mph 28.8 mph N/A Rain Light Rain
11:34 AM 47.7 °F - 38.7 °F 71% 29.87 in 10.0 mi West 23.0 mph 29.9 mph N/A   Light Drizzle
11:54 AM 46.9 °F - 39.6 °F 76% 29.88 in 7.0 mi West 21.9 mph 31.1 mph N/A Rain Light Rain
12:14 PM 47.1 °F - 39.6 °F 75% 29.89 in 10.0 mi West 20.7 mph 27.6 mph N/A   Light Drizzle
12:34 PM 47.8 °F - 39.0 °F 71% 29.89 in 10.0 mi West 20.7 mph 27.6 mph N/A   Overcast
12:54 PM 47.7 °F - 38.7 °F 71% 29.90 in 10.0 mi West 20.7 mph 29.9 mph N/A   Overcast
1:14 PM 47.3 °F - 38.1 °F 70% 29.92 in 10.0 mi WNW 21.9 mph 29.9 mph N/A   Overcast
1:54 PM 47.3 °F - 38.3 °F 71% 29.93 in 10.0 mi WNW 18.4 mph 26.5 mph N/A   Overcast
2:14 PM 47.3 °F - 38.3 °F 71% 29.94 in 10.0 mi WNW 18.4 mph 25.3 mph N/A   Mostly Cloudy
2:34 PM 47.7 °F - 37.0 °F 67% 29.95 in 10.0 mi WNW 15.0 mph 20.7 mph N/A   Mostly Cloudy
2:54 PM 47.3 °F - 37.8 °F 69% 29.96 in 10.0 mi WNW 17.3 mph 23.0 mph N/A   Overcast
3:14 PM 47.3 °F - 38.1 °F 70% 29.97 in 10.0 mi West 19.6 mph 24.2 mph N/A   Overcast
3:35 PM 47.7 °F - 35.8 °F 63% 29.98 in 10.0 mi WNW 20.7 mph 29.9 mph N/A   Mostly Cloudy
3:54 PM 47.3 °F - 34.3 °F 61% 29.99 in 10.0 mi WNW 16.1 mph 28.8 mph N/A   Scattered Clouds
4:14 PM 47.3 °F - 35.1 °F 62% 30.00 in 10.0 mi West 19.6 mph 27.6 mph N/A   Mostly Cloudy
4:35 PM 46.8 °F - 34.2 °F 62% 30.01 in 10.0 mi West 18.4 mph 25.3 mph N/A   Overcast
4:54 PM 46.8 °F - 34.9 °F 63% 30.02 in 10.0 mi WNW 18.4 mph 24.2 mph N/A   Overcast
5:14 PM 47.3 °F - 34.2 °F 60% 30.02 in 10.0 mi West 18.4 mph 23.0 mph N/A   Overcast
5:35 PM 46.9 °F - 33.1 °F 59% 30.03 in 10.0 mi WNW 18.4 mph 28.8 mph N/A   Mostly Cloudy
6:14 PM 46.8 °F - 32.4 °F 57% 30.05 in 10.0 mi WNW 20.7 mph 27.6 mph N/A   Mostly Cloudy
6:34 PM 46.9 °F - 31.8 °F 56% 30.05 in 10.0 mi WNW 16.1 mph 28.8 mph N/A   Mostly Cloudy
6:54 PM 46.6 °F - 31.8 °F 56% 30.06 in 10.0 mi WNW 17.3 mph 28.8 mph N/A   Mostly Cloudy
7:14 PM 46.6 °F - 34.2 °F 62% 30.07 in 10.0 mi NW 15.0 mph 26.5 mph N/A   Overcast
7:34 PM 46.4 °F 39.5 °F 25.5 °F 44% 30.08 in 10.0 mi NW 17.3 mph 29.9 mph N/A   Scattered Clouds
7:54 PM 46.2 °F 38.7 °F 27.3 °F 48% 30.09 in 10.0 mi NW 19.6 mph 27.6 mph N/A   Scattered Clouds
8:14 PM 45.7 °F 37.6 °F 27.1 °F 48% 30.10 in 10.0 mi WNW 21.9 mph 27.6 mph N/A   Scattered Clouds
8:34 PM 46.0 °F 38.5 °F 27.9 °F 49% 30.10 in 10.0 mi WNW 19.6 mph 26.5 mph N/A   Mostly Cloudy
8:54 PM 45.5 °F 38.1 °F 28.0 °F 51% 30.12 in 10.0 mi WNW 18.4 mph 27.6 mph N/A   Scattered Clouds
9:14 PM 45.5 °F 37.6 °F 29.7 °F 54% 30.13 in 10.0 mi WNW 20.7 mph 26.5 mph N/A   Scattered Clouds
9:34 PM 43.3 °F 34.7 °F 34.7 °F 72% 30.15 in 10.0 mi NW 20.7 mph 32.2 mph N/A   Scattered Clouds
9:54 PM 43.7 °F 34.5 °F 31.5 °F 62% 30.16 in 10.0 mi NW 24.2 mph 31.1 mph N/A   Scattered Clouds
10:14 PM 43.7 °F 35.0 °F 33.4 °F 67% 30.17 in 10.0 mi NNW 21.9 mph 32.2 mph N/A   Mostly Cloudy
10:34 PM 43.2 °F 35.3 °F 33.6 °F 69% 30.17 in 10.0 mi NW 17.3 mph 27.6 mph N/A   Overcast
10:54 PM 43.5 °F 35.8 °F 33.3 °F 67% 30.18 in 10.0 mi NW 17.3 mph 25.3 mph N/A   Overcast
11:34 PM 43.0 °F 33.8 °F 31.8 °F 65% 30.19 in 10.0 mi NW 23.0 mph 33.4 mph N/A   Mostly Cloudy
11:54 PM 42.4 °F 34.4 °F 32.0 °F 67% 30.20 in 10.0 mi NNW 17.3 mph 29.9 mph N/A   Scattered Clouds